Date and Time,30m Wind Direction,30m Wind Speed,30m Wind Vert,30m Quality,40m Wind Direction,40m Wind Speed,40m Wind Vert,40m Quality,50m Wind Direction,50m Wind Speed,50m Wind Vert,50m Quality,60m Wind Direction,60m Wind Speed,60m Wind Vert,60m Quality,80m Wind Direction,80m Wind Speed,80m Wind Vert,80m Quality,100m Wind Direction,100m Wind Speed,100m Wind Vert,100m Quality,120m Wind Direction,120m Wind Speed,120m Wind Vert,120m Quality,140m Wind Direction,140m Wind Speed,140m Wind Vert,140m Quality,160m Wind Direction,160m Wind Speed,160m Wind Vert,160m Quality,180m Wind Direction,180m Wind Speed,180m Wind Vert,180m Quality,200m Wind Direction,200m Wind Speed,200m Wind Vert,200m Quality,30m Wind Turbulence,40m Wind Turbulence,50m Wind Turbulence,60m Wind Turbulence,80m Wind Turbulence,100m Wind Turbulence,120m Wind Turbulence,140m Wind Turbulence,160m Wind Turbulence,180m Wind Turbulence,200m Wind Turbulence
10/4/2017 12:00 AM,87.30,1.61,-0.01,97,86.00,1.95,0.02,91,84.20,2.31,0.11,98,90.00,2.91,0.10,94,97.40,2.20,0.42,95,139.40,1.83,0.86,91,92.00,3.14,0.88,87,17.60,1.61,0.99,63,228.20,8.55,2.10,53,238.60,5.25,2.95,29,323.90,5.11,2.69,35,0.31,0.23,0.28,0.18,0.88,1.86,0.57,1.58,0.37,1.79,1.11
10/4/2017 12:10 AM,93.80,1.06,-0.07,96,70.30,1.79,-0.03,95,84.30,2.15,-0.04,97,105.50,2.31,-0.03,96,98.80,3.28,-0.06,93,95.70,3.57,-0.05,83,101.70,3.18,-0.04,50,196.40,3.27,0.33,34,151.30,7.75,-0.12,1,93.80,6.11,0.75,5,64.00,13.36,2.38,3,0.49,0.23,0.20,0.28,0.13,0.16,0.64,0.47,0.23,0.28,0.43
10/4/2017 12:20 AM,85.50,2.31,0.04,97,91.10,2.18,0.12,96,86.00,2.83,0.08,98,81.90,2.83,0.12,97,94.20,3.38,0.24,95,56.80,3.19,0.16,94,67.10,2.44,0.28,92,359.20,3.57,0.25,89,344.90,7.40,0.36,81,28.30,10.99,-1.09,67,12.40,7.74,-0.14,70,0.21,0.42,0.19,0.49,0.66,1.12,2.22,1.11,0.60,0.39,0.61
10/4/2017 12:30 AM,102.90,2.56,0.02,98,105.80,2.39,0.05,96,101.90,2.69,0.07,97,107.50,3.17,0.11,95,107.50,3.91,0.26,91,118.00,3.82,0.70,72,207.60,2.10,0.93,47,102.20,5.82,1.15,51,114.10,5.00,1.68,29,238.60,0.90,2.45,26,164.50,4.65,2.72,32,0.19,0.28,0.20,0.19,0.50,0.47,0.84,1.51,0.56,0.78,0.44
10/4/2017 12:40 AM,88.30,1.97,-0.02,97,102.00,1.62,0.04,96,90.70,2.47,0.02,96,94.60,2.39,0.01,94,103.00,3.30,-0.06,93,103.80,3.90,-0.09,88,131.30,3.43,0.05,66,147.60,4.29,-0.54,44,148.50,8.73,-0.88,11,61.70,2.91,0.28,16,232.70,23.55,-1.06,8,0.27,0.28,0.15,0.22,0.35,0.40,0.85,0.51,1.38,2.54,0.58
10/4/2017 12:50 AM,89.10,1.96,-0.01,98,97.80,2.71,-0.04,96,104.50,2.53,-0.04,97,94.90,2.77,-0.05,93,91.70,3.19,-0.01,96,65.80,3.41,0.12,88,87.00,5.49,0.13,79,95.30,4.17,0.61,66,5.70,18.15,1.72,39,342.00,15.64,3.73,13,4.20,8.84,2.71,17,0.26,0.15,0.17,0.15,0.36,0.47,0.34,0.45,0.55,0.24,0.53
10/4/2017 1:00 AM,86.60,2.89,0.10,98,92.00,3.01,0.14,98,87.90,3.07,0.13,97,86.60,2.93,0.09,95,91.80,3.45,0.16,93,105.20,4.26,0.11,91,112.30,4.83,-0.34,81,116.90,6.58,-0.64,53,149.30,12.59,-2.07,33,50.60,7.59,-3.54,29,181.00,7.12,-3.19,22,0.14,0.13,0.16,0.27,0.17,0.44,2.02,0.97,0.37,0.48,0.93
10/4/2017 1:10 AM,99.20,1.85,0.03,97,92.50,2.17,0.07,96,123.40,2.51,0.02,96,111.80,2.55,0.14,96,98.50,1.82,-0.06,94,91.80,1.60,-0.19,91,10.20,2.18,-0.19,70,350.70,5.34,-0.71,55,329.20,10.25,-1.37,32,354.10,8.34,-2.34,14,338.60,20.71,-3.17,9,0.41,0.34,0.24,0.22,0.77,1.32,0.59,0.52,0.40,0.26,0.24
10/4/2017 1:20 AM,90.60,2.46,0.03,97,101.40,2.71,0.06,96,105.80,2.55,0.09,97,102.00,2.98,0.09,95,49.50,1.70,-0.31,94,30.80,3.39,-0.40,91,359.80,2.23,-0.81,88,48.10,4.17,-1.04,54,359.00,8.97,-2.21,27,353.40,16.77,-2.95,44,347.00,8.14,-4.20,14,0.16,0.13,0.16,0.21,0.42,0.75,1.25,0.68,0.33,0.49,0.60
10/4/2017 1:30 AM,98.70,2.10,0.08,96,112.80,2.41,0.04,93,113.50,2.95,0.10,96,107.90,2.63,0.17,96,116.20,3.24,0.16,94,102.00,2.26,0.52,91,63.90,1.05,0.67,88,350.10,1.55,0.64,67,59.70,2.66,0.40,61,329.70,10.59,1.97,31,5.10,8.05,2.60,23,0.22,0.34,0.16,2.16,0.14,0.89,0.86,1.10,0.55,1.28,0.63
10/4/2017 1:40 AM,122.70,2.23,0.00,97,106.10,2.77,0.10,94,118.30,1.98,0.06,95,118.20,3.06,0.13,94,140.30,2.98,0.18,63,98.30,3.36,0.23,90,126.60,3.76,0.27,54,96.40,4.37,0.67,43,115.90,7.51,1.18,23,108.40,13.61,2.57,18,128.80,24.85,2.26,5,0.24,0.17,0.63,0.14,0.30,0.31,0.41,0.51,1.38,0.33,0.19
10/4/2017 1:50 AM,121.70,1.91,-0.10,95,104.30,2.41,0.05,95,118.60,1.64,-0.10,92,121.20,1.92,0.08,92,122.60,2.97,0.18,90,117.60,1.16,0.36,89,123.10,2.89,0.58,72,185.50,3.36,1.19,47,110.60,4.96,1.59,49,116.80,5.69,0.68,36,189.60,5.74,1.86,38,0.30,0.16,1.73,3.38,0.42,0.98,1.24,0.64,0.54,0.34,0.38
10/4/2017 2:00 AM,100.10,2.40,-0.17,97,126.00,3.38,-0.44,95,126.20,3.06,-0.86,92,106.10,7.30,-0.91,92,123.40,7.73,-1.91,93,136.80,6.62,-2.78,90,68.80,2.05,-3.79,66,157.00,6.07,-3.63,53,304.50,5.42,-5.38,54,263.90,8.29,-5.74,43,257.30,4.44,-6.44,45,0.42,0.91,0.89,0.37,0.50,0.60,0.69,0.66,1.12,0.48,0.62
10/4/2017 2:10 AM,116.20,2.54,-0.25,97,91.70,4.28,-0.48,95,91.30,5.92,-1.15,92,118.50,3.99,-1.37,95,117.30,6.61,-2.24,94,127.50,10.51,-2.95,92,140.90,7.23,-4.25,90,150.90,6.42,-5.21,84,168.90,5.83,-5.03,66,249.70,1.60,-6.70,64,290.70,6.76,-6.47,45,0.51,0.59,0.61,0.79,0.69,0.47,0.69,0.62,0.72,4.64,1.02
10/4/2017 2:20 AM,92.90,3.86,-0.31,97,100.40,4.32,-0.78,96,135.40,4.71,-1.17,94,154.60,4.56,-1.76,94,86.80,3.11,-2.60,92,77.50,9.55,-2.22,87,307.80,5.36,-3.68,77,323.10,3.43,-3.23,69,73.50,1.51,-4.13,59,128.80,10.29,-3.44,58,342.50,6.39,-4.04,54,0.35,0.61,0.69,0.92,2.09,0.56,2.57,2.68,1.20,0.86,1.31
10/4/2017 2:30 AM,124.10,2.69,-0.02,97,111.90,3.72,-0.15,96,100.20,4.05,-0.34,95,106.90,3.93,-0.40,95,60.10,3.67,-0.90,94,52.20,1.83,-1.89,91,354.80,3.29,-1.32,74,45.60,6.19,0.88,56,354.40,4.40,2.19,60,326.00,5.22,1.08,56,355.80,13.40,-1.16,44,0.23,0.30,0.61,0.63,1.44,2.16,1.04,1.91,1.91,3.37,0.88
10/4/2017 2:40 AM,140.50,3.34,0.01,96,117.90,2.44,0.06,96,84.10,2.70,-0.22,94,105.00,4.17,-0.41,94,61.10,6.69,-0.57,94,58.50,5.72,-0.28,91,191.10,3.93,0.56,82,97.70,17.16,1.03,87,329.00,8.91,-1.41,68,50.30,5.97,1.50,73,106.20,9.63,0.51,78,0.14,0.51,0.86,1.16,1.55,0.89,3.96,0.65,1.54,1.66,1.23
10/4/2017 2:50 AM,129.40,2.67,0.00,96,122.10,3.63,-0.11,96,130.40,1.97,0.00,94,134.10,3.50,0.05,95,228.80,5.62,0.68,93,233.70,6.86,1.68,90,231.70,12.10,2.96,87,304.60,10.04,1.95,70,269.90,6.87,-0.06,50,155.90,15.58,4.42,64,225.30,14.26,3.50,51,0.14,0.34,0.89,0.86,0.63,0.55,0.72,1.13,3.07,0.49,0.49
10/4/2017 3:00 AM,133.50,2.38,0.01,97,123.60,2.14,0.04,95,65.60,0.88,0.32,95,277.60,2.42,0.75,94,265.10,7.92,2.20,92,321.20,5.76,4.49,80,299.40,14.69,5.30,67,317.80,6.71,5.79,49,177.50,2.36,7.39,39,345.20,1.92,7.72,27,344.80,1.87,7.73,42,0.18,0.20,1.69,0.80,0.77,1.58,0.65,1.20,1.08,0.60,0.61
10/4/2017 3:10 AM,139.90,2.57,-0.01,95,138.00,2.40,0.29,96,175.70,2.88,0.70,95,190.50,2.73,1.16,93,347.30,2.68,2.52,94,8.20,6.65,4.15,90,227.90,4.44,5.81,85,309.40,5.64,6.47,69,315.70,1.49,6.70,55,252.70,1.25,7.84,38,38.90,4.35,7.83,41,0.15,0.62,0.93,0.72,2.84,1.75,2.16,2.11,3.02,4.63,0.28
10/4/2017 3:20 AM,127.10,1.36,0.05,97,234.50,2.46,0.70,94,215.70,3.20,1.68,96,210.50,2.75,1.60,96,210.80,5.35,3.04,93,330.60,4.79,4.81,91,338.90,3.49,5.48,89,15.70,6.05,6.55,71,306.70,4.15,7.53,45,182.40,3.70,8.04,56,287.10,2.77,7.91,56,0.62,1.03,1.27,1.11,0.94,1.97,2.50,0.95,1.67,0.92,0.87
10/4/2017 3:30 AM,138.20,2.70,0.00,98,172.20,2.15,0.47,97,336.10,0.38,1.26,96,19.60,2.72,1.72,96,0.60,2.01,2.73,95,265.20,5.30,4.00,93,338.00,6.66,4.73,91,188.60,3.11,5.69,76,103.30,4.86,6.43,60,320.70,5.90,7.06,54,347.10,6.26,7.32,55,0.25,0.86,15.19,1.59,2.04,0.91,1.60,2.05,0.74,0.51,0.37
10/4/2017 3:40 AM,139.50,3.03,0.04,97,134.60,2.43,0.08,97,144.60,2.83,0.15,96,125.00,1.99,0.21,96,126.10,1.55,0.33,94,81.10,3.72,0.62,89,321.10,2.70,1.77,77,281.00,9.87,2.22,51,282.90,12.26,2.42,45,354.90,18.50,1.17,20,291.00,8.48,2.97,25,0.15,0.29,0.14,0.42,1.09,0.93,11.43,0.89,0.64,0.39,5.57
10/4/2017 3:50 AM,153.80,1.84,-0.04,96,123.70,1.69,0.04,98,136.30,1.59,0.10,96,144.80,1.95,0.07,94,164.10,1.56,0.29,94,183.00,2.91,0.27,91,235.20,3.52,0.25,90,200.10,1.33,0.03,73,337.30,17.89,-0.20,38,304.20,26.31,-0.30,50,254.60,22.39,-0.77,13,0.23,0.38,0.48,0.46,0.98,0.56,1.10,0.97,0.32,0.32,0.47
10/4/2017 4:00 AM,152.80,2.83,0.01,97,144.50,2.80,0.00,98,146.80,2.54,0.07,97,153.90,2.76,0.11,95,162.00,2.52,0.06,95,151.30,2.35,-0.08,94,171.70,3.39,-0.06,91,168.10,4.60,-0.05,81,111.40,0.61,-0.18,71,254.30,4.72,-0.98,53,175.80,5.36,-1.29,48,0.17,0.16,0.15,0.36,0.41,1.41,0.56,0.64,1.11,0.56,2.65
10/4/2017 4:10 AM,162.70,2.46,0.11,97,152.30,1.29,0.03,97,164.60,1.96,0.11,96,153.30,2.44,0.03,95,149.10,3.45,-0.02,95,146.00,3.72,-0.07,92,142.20,4.11,-0.47,88,146.00,6.32,-0.34,72,143.20,5.86,-1.10,56,88.80,4.40,-2.48,45,74.80,8.94,-1.61,26,0.18,0.39,0.21,0.19,0.34,0.58,0.60,0.33,0.76,1.14,0.72
10/4/2017 4:20 AM,160.60,2.34,0.07,97,160.70,2.43,0.04,97,168.70,3.23,0.10,97,168.60,3.03,0.13,96,168.60,3.17,0.20,96,172.60,4.00,0.20,92,190.00,3.69,0.12,89,185.20,6.16,0.12,83,168.70,4.06,0.29,59,153.00,4.79,-0.36,50,101.20,4.78,-0.79,29,0.21,0.17,0.13,0.19,0.24,0.39,0.65,0.33,0.37,1.86,0.38
10/4/2017 4:30 AM,183.30,2.93,0.01,97,186.40,2.61,-0.01,96,181.20,2.26,-0.02,97,172.70,2.42,-0.03,96,198.50,2.78,-0.13,93,198.70,3.70,-0.23,90,176.10,2.67,-0.45,83,239.90,2.53,-0.44,60,211.30,5.87,-1.14,51,245.10,4.21,-1.97,33,263.10,14.24,-3.55,36,0.15,0.17,0.17,0.17,0.40,0.48,1.39,2.55,0.45,0.83,0.63
10/4/2017 4:40 AM,202.40,2.84,-0.14,97,173.80,2.57,0.00,95,187.60,2.30,0.07,96,188.70,2.33,0.06,96,201.50,2.56,-0.10,93,190.00,6.74,-0.29,87,162.00,4.20,-0.33,62,181.90,5.73,-0.94,38,142.40,7.99,-1.36,38,180.60,15.56,-0.81,26,252.10,12.62,-1.50,28,0.16,0.18,0.18,0.19,0.58,0.33,0.73,0.61,0.93,0.26,0.34
10/4/2017 4:50 AM,197.70,2.70,-0.17,96,168.40,2.45,0.01,93,189.10,2.21,0.06,95,176.90,1.64,-0.11,94,186.00,3.26,-0.01,91,192.60,3.12,-0.31,71,181.20,7.29,-0.24,48,187.90,8.88,-0.74,31,119.50,4.50,-1.88,22,317.80,8.77,-3.36,7,58.60,10.39,-3.41,8,0.18,0.20,0.20,0.56,0.19,0.50,0.48,0.64,1.07,0.41,0.43
10/4/2017 5:00 AM,193.20,2.92,-0.04,97,187.20,3.06,-0.03,94,183.50,2.35,-0.04,96,180.30,2.47,-0.07,95,197.90,2.78,-0.06,92,204.80,3.17,-0.11,88,213.30,2.43,-0.42,77,183.80,7.33,-0.35,52,196.20,8.95,-1.03,25,212.40,6.57,-2.26,10,20.30,2.19,-5.49,18,0.12,0.14,0.17,0.23,0.31,0.31,0.49,0.19,0.65,0.45,1.46
10/4/2017 5:10 AM,207.80,2.73,-0.06,97,188.60,2.58,0.04,95,198.30,1.88,0.04,97,187.70,1.85,-0.03,95,194.40,2.78,0.04,94,200.10,3.35,-0.07,60,201.50,3.51,-0.09,35,204.60,6.25,-0.16,14,202.40,16.24,-4.68,2,235.60,54.41,-1.53,0,335.50,5.24,-4.20,1,0.14,0.17,0.22,0.21,0.22,0.47,0.33,0.25,0.20,0.05,0.46
10/4/2017 5:20 AM,218.30,1.96,-0.11,98,212.50,1.82,-0.04,94,201.10,2.28,0.03,95,195.90,2.38,0.01,94,186.80,2.80,0.03,93,191.90,3.21,0.05,89,201.70,3.43,-0.11,50,189.10,4.04,-0.44,29,239.40,14.86,0.16,12,243.60,43.52,-0.37,4,52.60,28.61,-2.51,1,0.21,0.25,0.13,0.15,0.18,0.33,0.43,0.50,0.57,0.14,0.14
10/4/2017 5:30 AM,210.20,1.81,-0.07,97,213.60,2.19,-0.08,93,198.60,1.65,0.04,96,209.10,1.92,-0.07,93,195.90,3.33,-0.21,92,224.90,4.24,-0.59,89,183.90,3.98,-0.78,68,235.50,8.50,-4.87,37,260.50,5.62,-6.17,17,14.00,2.47,-5.79,16,129.80,15.22,-5.78,11,0.21,0.21,0.24,0.20,0.47,0.89,0.57,0.79,0.44,1.08,0.31
10/4/2017 5:40 AM,212.50,2.20,-0.07,97,210.90,2.13,-0.12,94,233.90,1.61,-0.02,97,211.40,2.07,-0.06,94,200.00,2.93,0.00,93,247.10,5.41,-0.75,86,245.10,11.25,-1.94,38,246.00,22.60,-4.72,12,308.80,17.48,-1.09,3,348.80,20.82,-5.47,7,348.90,21.09,-6.70,11,0.17,0.19,0.22,0.15,0.18,0.49,0.62,1.20,2.24,0.44,0.32
10/4/2017 5:50 AM,203.80,1.45,-0.15,96,217.20,2.12,-0.10,94,236.30,1.50,-0.05,97,204.60,1.70,0.05,95,182.20,2.34,0.08,89,178.90,4.90,0.14,35,170.20,2.70,1.38,16,67.30,31.74,-1.01,6,61.60,10.42,1.08,6,5.40,7.46,1.85,2,61.00,21.66,2.90,3,0.35,0.49,0.23,0.36,0.63,0.50,0.72,0.19,0.75,0.83,0.43
10/4/2017 6:00 AM,218.90,1.29,-0.11,95,206.40,1.90,-0.07,63,240.90,1.54,0.00,96,220.90,1.59,-0.01,94,214.40,2.90,-0.02,92,219.10,3.99,0.07,45,218.50,3.82,0.30,32,206.40,5.22,0.24,22,228.20,16.98,2.72,2,197.30,4.59,2.05,3,9.00,10.98,3.02,5,0.27,0.22,0.23,0.38,0.26,0.36,0.47,0.71,0.20,0.23,0.67
10/4/2017 6:10 AM,224.90,1.82,-0.02,97,237.70,1.70,0.01,94,246.60,2.22,0.12,96,269.00,1.51,0.17,95,229.20,3.86,0.24,92,201.80,3.38,0.35,80,320.90,3.85,0.44,43,304.70,9.14,0.89,33,29.20,5.06,3.98,23,345.50,12.75,3.85,10,194.80,10.81,1.89,5,0.25,0.28,0.29,0.72,0.32,0.39,0.49,0.76,0.55,0.53,0.56
10/4/2017 6:20 AM,302.90,3.18,0.08,98,293.80,2.64,0.07,98,294.80,2.89,0.11,97,273.60,2.39,0.10,97,243.40,2.14,0.03,97,220.50,2.55,0.01,97,214.20,3.54,0.10,96,211.30,3.18,0.11,91,213.10,3.93,0.30,78,317.00,7.73,0.17,34,117.20,23.84,4.57,14,0.09,0.10,0.12,0.14,0.24,0.19,0.25,0.75,0.65,0.76,0.16
10/4/2017 6:30 AM,303.70,2.93,-0.01,99,293.50,2.85,0.00,97,286.80,2.39,-0.03,95,265.20,2.16,-0.09,97,252.10,2.48,-0.09,98,235.30,2.34,-0.12,97,232.80,2.63,-0.15,97,228.30,2.45,-0.10,93,233.00,2.72,-0.11,86,204.80,2.46,-0.14,28,119.50,4.57,0.93,8,0.09,0.11,0.17,0.17,0.14,0.13,0.25,0.27,0.36,0.37,0.50
10/4/2017 6:40 AM,298.90,2.78,0.00,98,291.80,2.66,-0.05,96,274.60,2.47,-0.12,95,264.00,2.32,-0.12,97,250.10,2.19,-0.12,96,242.80,2.45,-0.11,98,234.50,2.79,-0.14,95,217.80,2.98,-0.02,89,175.10,3.95,0.32,45,143.10,4.57,0.52,19,156.30,18.25,0.99,0,0.10,0.11,0.17,0.17,0.15,0.33,0.19,0.55,0.69,0.99,0.27
10/4/2017 6:50 AM,295.70,2.65,0.04,98,286.80,2.72,-0.05,97,266.30,2.00,-0.05,95,267.00,1.43,-0.06,95,226.30,1.96,-0.08,94,223.00,2.12,-0.02,90,233.80,6.34,-0.53,35,265.30,11.70,-0.18,13,80.00,11.17,-1.72,14,164.10,7.91,0.91,19,296.10,21.66,-2.06,18,0.08,0.17,0.24,0.49,0.59,1.78,0.60,0.46,0.41,1.07,0.34
10/4/2017 7:00 AM,290.90,2.70,0.02,98,273.70,2.47,0.00,95,254.10,2.59,-0.10,95,249.70,1.01,-0.07,97,281.20,5.56,0.63,58,249.60,12.25,1.88,38,310.50,15.17,2.12,22,316.50,32.42,0.28,24,277.50,15.96,3.52,20,253.10,8.20,3.15,15,329.50,13.32,4.97,10,0.13,0.15,0.17,0.73,0.85,0.57,0.25,0.27,0.19,0.47,0.34
10/4/2017 7:10 AM,295.50,2.60,0.07,98,292.20,2.59,-0.02,98,296.30,2.70,0.02,96,289.10,2.86,-0.02,96,355.70,6.65,1.31,90,6.60,6.15,6.16,32,315.20,10.83,4.58,51,312.30,8.88,4.53,53,268.80,4.71,6.44,28,322.70,7.93,5.77,31,298.80,23.00,4.29,26,0.17,0.12,0.09,0.13,0.45,0.39,0.58,0.62,0.60,0.47,0.30
10/4/2017 7:20 AM,307.10,2.82,-0.01,98,298.30,2.79,0.01,98,293.20,3.06,0.01,98,294.40,3.20,0.01,96,266.50,2.85,0.30,93,99.70,4.97,3.97,50,44.50,2.39,3.81,31,260.40,5.61,5.12,19,223.80,7.92,6.95,29,212.80,5.09,7.35,26,271.20,6.31,6.57,20,0.13,0.12,0.11,0.13,0.56,0.45,1.18,0.49,0.36,0.23,0.64
10/4/2017 7:30 AM,303.30,3.16,0.03,98,300.80,3.20,0.00,99,299.20,3.26,0.02,99,293.70,3.45,-0.02,98,145.10,7.22,1.85,90,200.50,10.70,4.49,28,180.60,13.56,7.14,21,176.20,26.71,6.00,2,194.80,14.19,6.89,4,179.40,8.10,7.82,21,206.20,3.23,7.96,24,0.10,0.09,0.07,0.09,0.72,0.59,0.22,0.26,0.24,0.27,1.78
10/4/2017 7:40 AM,299.80,2.76,0.07,99,299.50,2.98,0.02,99,296.30,3.49,0.03,99,289.90,3.73,0.00,99,76.60,1.74,1.23,87,252.70,8.09,5.29,23,233.30,5.37,5.66,16,205.10,11.24,6.04,9,180.90,4.44,5.35,17,185.90,11.01,5.42,24,254.40,6.43,5.29,18,0.11,0.09,0.07,0.09,1.60,0.62,0.47,0.83,0.87,1.19,0.45
10/4/2017 7:50 AM,299.60,3.09,0.05,99,295.40,2.99,0.04,99,296.10,3.69,0.06,99,289.90,3.79,0.10,99,333.30,5.12,1.25,87,117.20,0.90,7.46,25,316.40,3.34,6.54,30,176.30,0.53,6.71,25,334.80,10.17,5.70,36,301.30,7.06,6.44,15,310.60,9.34,6.13,29,0.10,0.08,0.06,0.15,0.45,0.42,0.94,3.02,0.30,0.22,0.44
10/4/2017 8:00 AM,307.60,3.02,0.09,99,298.10,3.35,0.04,99,297.20,3.55,0.07,99,292.60,3.78,0.08,100,354.90,1.83,0.79,94,50.40,6.44,4.55,27,235.40,3.76,6.07,20,70.00,8.76,5.50,31,126.90,1.60,5.25,27,59.30,9.03,5.82,27,47.00,14.65,4.97,29,0.11,0.08,0.06,0.07,0.85,0.91,0.57,1.31,0.78,0.40,0.33
10/4/2017 8:10 AM,301.60,3.36,0.07,99,296.10,3.49,0.06,100,292.20,3.76,0.02,98,292.70,2.75,0.09,97,276.40,2.05,0.21,80,143.00,15.19,2.55,2,133.20,10.99,2.77,5,235.00,5.74,1.13,3,265.40,1.31,1.70,0,212.80,6.35,1.18,1,334.90,20.14,1.77,1,0.08,0.05,0.09,0.26,1.09,0.14,0.24,0.27,2.77,0.33,0.10
10/4/2017 8:20 AM,302.30,3.02,0.06,99,297.40,3.57,0.01,99,296.10,3.84,-0.01,99,296.80,4.10,0.05,97,335.30,3.83,1.00,88,76.20,6.05,6.70,32,20.40,0.60,5.52,8,357.20,5.34,4.88,11,278.10,2.45,5.66,15,110.90,8.63,5.76,17,65.20,11.85,5.52,16,0.09,0.07,0.08,0.24,0.91,0.89,0.28,0.48,0.86,1.10,0.34
10/4/2017 8:30 AM,296.00,2.90,0.04,99,294.50,3.29,0.01,98,290.20,3.44,0.00,99,295.30,3.88,0.00,99,104.50,5.53,2.61,69,192.20,16.20,5.23,34,204.60,9.21,5.46,32,200.80,15.94,5.17,23,192.90,19.87,4.63,19,165.60,16.45,4.84,22,189.10,9.25,5.78,17,0.10,0.08,0.06,0.17,1.30,0.38,0.39,0.26,0.36,0.27,0.38
10/4/2017 8:40 AM,301.80,3.04,0.10,99,297.50,3.04,0.04,99,289.10,3.49,0.02,99,290.40,4.07,0.03,98,79.30,2.44,1.35,64,350.10,5.71,4.93,23,162.20,10.07,6.13,23,215.60,14.81,4.83,27,284.40,9.43,5.47,32,225.40,8.65,6.04,22,226.00,2.86,7.09,26,0.10,0.08,0.06,0.10,1.15,1.37,0.66,0.64,0.82,1.00,7.65
10/4/2017 8:50 AM,301.50,3.02,0.09,99,301.30,3.45,0.03,99,295.50,3.66,0.02,99,289.10,3.91,-0.01,99,130.80,10.81,3.25,62,76.50,1.77,7.34,24,178.70,6.77,7.47,16,181.20,2.52,7.50,24,171.10,5.12,7.07,13,320.00,0.99,7.53,22,329.70,1.81,7.62,17,0.08,0.08,0.06,0.10,1.36,3.85,1.12,0.39,0.54,2.19,0.84
10/4/2017 9:00 AM,303.60,2.91,0.08,98,299.40,3.39,0.00,100,298.80,3.57,0.02,99,291.70,3.35,0.27,98,197.90,4.01,4.62,71,0.40,0.97,7.82,48,51.10,3.67,8.07,48,19.80,3.06,7.94,45,327.60,5.70,7.43,29,192.60,7.29,7.33,36,184.80,3.52,7.74,42,0.09,0.08,0.08,0.65,0.73,1.10,1.59,0.53,0.96,0.72,1.17
10/4/2017 9:10 AM,302.90,2.45,0.05,99,298.90,3.20,0.04,99,295.80,3.61,-0.02,99,290.40,4.35,-0.05,99,6.90,9.77,3.52,77,233.50,2.15,7.59,38,190.90,1.67,7.07,49,325.80,5.32,6.86,38,300.10,4.65,7.13,35,252.10,5.19,7.07,38,351.70,3.57,7.33,37,0.11,0.09,0.06,0.15,0.56,0.67,0.58,0.82,0.40,0.63,0.81
10/4/2017 9:20 AM,303.30,2.36,0.02,98,300.10,2.52,0.04,99,300.00,3.19,0.02,99,289.10,3.49,-0.03,98,32.40,0.77,-0.93,80,130.80,6.18,-1.41,37,136.10,6.52,-1.41,31,94.00,1.16,-1.74,39,112.60,6.79,-1.77,34,94.60,7.06,-1.40,37,145.20,1.80,-2.82,32,0.15,0.11,0.07,0.14,3.19,1.65,0.72,0.75,0.84,0.97,1.02
10/4/2017 9:30 AM,302.40,2.29,-0.02,98,291.60,2.66,-0.05,97,296.70,2.90,-0.08,97,273.30,2.25,-0.15,95,103.80,3.43,-0.57,67,111.50,7.34,-0.84,45,120.20,7.24,0.24,50,316.20,2.37,-0.60,40,263.10,22.03,0.85,41,19.80,4.66,-0.08,55,305.60,0.99,-0.53,47,0.18,0.12,0.10,0.51,1.17,0.98,2.84,0.79,0.37,1.38,0.72
10/4/2017 9:40 AM,305.10,2.28,0.01,97,286.50,2.62,-0.01,97,288.50,2.74,-0.08,97,187.90,2.09,-0.23,90,125.70,5.81,-1.75,44,91.70,10.56,-1.63,52,73.30,14.82,-1.24,52,90.70,8.55,-2.10,54,76.30,6.91,-1.22,45,4.30,5.40,-2.94,36,113.70,7.56,-1.64,46,0.16,0.10,0.16,0.88,2.96,1.28,1.01,0.99,1.37,0.50,0.97
10/4/2017 9:50 AM,299.40,2.38,0.00,96,287.10,2.53,-0.06,94,277.10,2.89,-0.10,95,267.30,1.28,0.02,96,92.50,2.64,0.10,74,45.90,11.71,3.69,20,251.70,7.70,2.94,24,245.10,10.77,2.81,18,317.90,2.36,2.73,19,145.40,13.18,4.73,22,87.30,5.90,4.56,15,0.15,0.09,0.15,0.64,1.08,2.21,0.36,0.44,1.12,0.77,3.30
10/4/2017 10:00 AM,282.80,1.83,-0.09,96,266.10,2.39,0.00,93,256.00,2.70,-0.09,96,273.90,1.86,0.02,94,298.20,5.08,0.45,44,279.20,15.19,1.85,40,271.20,9.71,3.23,24,311.80,5.62,6.82,7,288.40,8.52,6.52,10,16.20,2.85,7.46,11,310.10,21.89,4.05,5,0.24,0.16,0.16,0.54,1.13,0.27,0.33,0.98,0.99,0.40,0.31
10/4/2017 10:10 AM,260.40,1.67,-0.08,94,268.40,2.16,-0.09,95,256.30,2.61,-0.10,95,212.00,1.34,-0.06,82,124.50,11.23,1.04,64,194.80,2.50,0.82,44,214.40,8.89,1.31,23,137.20,21.59,3.36,11,42.80,18.35,4.62,10,87.10,18.47,4.83,5,52.60,23.74,5.61,11,0.23,0.17,0.17,0.46,0.26,1.02,0.89,0.26,0.36,0.15,0.28
10/4/2017 10:20 AM,261.80,1.55,-0.08,96,270.00,1.73,-0.07,95,260.30,2.30,-0.03,95,248.60,2.76,-0.09,96,258.20,2.30,-0.08,93,263.90,4.56,0.06,14,170.20,6.46,2.42,21,207.70,12.35,3.53,13,142.70,14.03,3.81,6,182.10,6.40,5.52,9,106.90,26.82,0.47,5,0.36,0.20,0.15,0.20,0.31,0.84,0.87,1.39,0.38,0.26,0.36
10/4/2017 10:30 AM,240.80,1.63,-0.06,97,287.20,1.32,0.08,95,258.30,2.04,-0.06,77,252.40,2.85,-0.15,97,260.00,2.72,-0.07,96,82.50,8.45,0.98,59,104.30,7.88,1.52,24,56.90,14.13,2.08,33,150.70,6.33,3.15,13,157.60,21.39,2.82,11,194.10,8.93,2.12,21,0.33,0.48,0.32,0.32,0.40,2.67,0.58,0.68,0.67,0.34,0.46
10/4/2017 10:40 AM,271.70,2.06,-0.04,96,268.20,1.36,-0.02,97,270.40,2.28,-0.03,95,278.20,2.27,-0.05,95,256.90,3.14,-0.10,96,320.50,4.47,0.43,33,36.00,17.97,1.76,15,49.30,0.76,3.54,20,186.60,13.62,1.82,15,320.70,9.11,2.71,15,295.20,3.72,0.98,19,0.21,0.34,0.19,0.15,0.16,1.01,0.37,1.89,0.76,0.75,0.66
10/4/2017 10:50 AM,264.90,1.23,-0.05,97,290.20,1.82,0.00,96,270.70,1.54,-0.03,95,275.90,1.87,-0.08,96,267.00,2.61,-0.06,96,250.00,2.03,0.16,91,299.30,10.87,3.75,13,344.60,7.85,6.24,1,176.90,52.06,3.73,6,89.00,17.70,5.44,6,313.40,21.08,3.07,0,0.44,0.28,0.27,0.24,0.17,1.78,0.96,0.57,0.08,0.83,0.24
10/4/2017 11:00 AM,262.90,1.54,-0.04,96,280.60,1.15,-0.09,96,273.70,1.80,-0.04,96,275.10,1.82,-0.06,96,258.90,2.80,-0.08,97,233.30,3.64,-0.13,78,187.00,20.69,1.05,10,131.70,29.84,0.85,3,242.70,51.47,-2.40,1,143.40,23.14,-0.03,4,10.80,7.45,2.37,7,0.32,0.41,0.23,0.26,0.21,0.68,0.30,0.19,0.22,0.46,0.99
10/4/2017 11:10 AM,216.50,1.27,-0.05,96,241.00,1.20,-0.01,78,255.00,1.49,-0.10,95,245.70,1.72,-0.09,97,240.60,2.18,-0.23,95,216.30,36.38,0.85,12,116.10,32.77,-1.59,7,231.60,24.39,0.15,6,214.30,42.76,-1.21,7,241.40,47.00,-1.76,7,329.80,16.46,1.28,3,0.41,0.39,0.37,0.34,0.49,0.18,0.41,0.29,0.08,0.45,0.24
10/4/2017 11:20 AM,247.60,1.33,-0.24,95,239.50,1.29,-0.20,95,259.30,1.78,-0.11,96,255.90,1.86,-0.08,96,240.90,2.12,-0.17,95,185.20,6.97,1.04,24,87.10,19.72,2.59,14,135.90,25.72,0.42,4,139.80,25.80,3.77,8,289.70,17.34,3.81,4,179.00,12.94,5.20,3,0.70,0.66,0.31,0.25,0.52,0.89,0.24,0.58,0.21,0.45,0.70
10/4/2017 11:30 AM,251.80,1.07,-0.01,94,255.70,2.03,-0.05,95,260.90,1.62,0.02,95,244.90,1.86,-0.03,97,258.60,1.25,-0.10,94,197.70,8.31,1.31,50,180.40,1.52,0.11,35,224.00,5.35,0.15,34,5.20,8.06,-0.16,32,65.90,4.85,0.93,50,234.30,6.15,0.23,64,0.51,0.22,0.49,0.30,1.65,1.00,0.71,0.89,0.51,2.50,0.87
10/4/2017 11:40 AM,287.20,1.15,-0.05,96,276.60,1.72,-0.02,95,249.10,1.89,-0.05,95,243.50,2.34,-0.10,95,263.80,1.92,-0.20,95,112.80,12.32,-0.38,38,141.20,9.13,0.18,43,84.70,7.14,-0.25,37,148.50,7.26,0.40,55,153.20,3.67,0.51,84,169.40,5.33,-0.12,82,0.48,0.30,0.55,0.27,0.93,0.52,0.40,0.60,2.47,0.93,0.90
10/4/2017 11:50 AM,355.90,1.12,-0.16,95,267.70,1.71,0.01,94,253.80,1.99,-0.01,94,276.50,1.69,0.07,95,255.50,3.76,0.18,94,164.80,10.45,1.44,28,114.10,8.43,2.47,35,123.90,15.02,0.97,28,152.40,11.14,2.26,33,195.90,7.16,1.62,25,165.00,9.88,2.65,32,0.55,0.23,0.21,0.37,0.34,1.64,0.58,0.41,0.51,1.35,0.60
10/4/2017 12:00 PM,271.50,0.91,-0.15,88,250.30,1.79,-0.06,93,244.10,2.05,-0.04,97,259.50,2.28,0.00,95,234.40,2.43,0.24,95,177.50,17.20,5.07,13,189.60,2.51,5.10,21,157.50,12.05,1.76,38,4.50,7.31,2.19,37,200.80,5.07,4.66,27,306.20,10.29,3.12,26,0.67,0.25,0.17,0.28,0.68,0.18,1.62,0.57,0.64,1.07,0.94
10/4/2017 12:10 PM,255.90,1.60,-0.06,97,242.70,1.90,-0.02,95,235.30,2.43,-0.06,98,234.60,2.48,-0.06,97,241.00,3.08,-0.12,99,196.20,4.69,0.66,91,158.90,12.32,3.40,48,195.70,8.26,2.54,55,233.70,7.65,3.05,49,194.00,7.30,2.73,58,207.20,5.16,2.45,71,0.27,0.22,0.15,0.12,0.18,0.40,0.36,0.48,0.64,0.53,1.24
10/4/2017 12:20 PM,260.20,2.30,-0.02,97,235.40,2.30,0.07,96,233.10,2.36,0.03,96,226.60,2.20,0.12,97,231.50,2.95,0.05,98,238.90,2.90,0.16,95,15.90,11.75,-0.12,39,324.00,8.31,-0.02,65,299.40,14.63,0.20,58,287.80,21.79,0.27,36,274.20,6.98,1.19,40,0.23,0.18,0.19,0.17,0.15,0.70,0.84,0.96,0.76,0.36,0.69
10/4/2017 12:30 PM,239.00,2.39,0.06,97,233.10,2.13,0.08,96,228.90,2.32,0.09,97,231.00,2.35,0.05,97,229.80,3.16,-0.01,97,227.40,3.94,0.11,95,32.00,12.56,1.73,14,314.30,10.20,-0.08,40,293.00,7.66,0.12,23,94.20,5.65,-1.10,34,148.20,15.79,0.72,36,0.19,0.22,0.20,0.14,0.10,0.65,0.73,0.47,1.69,6.51,0.58
10/4/2017 12:40 PM,243.00,2.09,0.13,97,251.30,2.04,0.06,96,239.20,2.46,0.00,98,239.60,2.68,-0.01,98,230.00,3.43,-0.05,98,197.20,2.59,0.27,94,38.80,20.00,-0.19,23,11.50,14.41,-0.74,35,164.90,5.85,0.09,42,254.60,4.68,1.54,23,324.30,26.00,2.90,13,0.22,0.20,0.14,0.11,0.11,1.86,0.76,0.67,0.98,1.01,0.28